Location: Batang Balui
(2.7000°N, 113.7833°E)
Time: 12:18:48
(UTC+00:00)

ELECTRON KICK STAGE R/B - Visible Passes

Search period start: 01 December 2023 00:00
Search period end: 11 December 2023 00:00
Orbit: 547 x 735 km, 98.3° (Epoch: 01 December)

Date Brightness Start Highest point End Pass type
(mag) Time Alt. Az. Time Alt. Az. Time Alt. Az.
01 Dec ? 10:33:08 10° SSE 10:37:40 41° ENE 10:41:57 10° N visible
02 Dec ? 10:56:35 10° SSE 11:01:24 88° ENE 11:05:56 10° NNW visible
03 Dec ? 11:20:35 10° S 11:25:06 43° WSW 11:29:25 10° NNW visible
04 Dec ? 11:45:14 10° SSW 11:48:47 21° WSW 11:52:13 10° NW visible
05 Dec ? 10:31:57 10° SE 10:36:19 38° ENE 10:40:27 10° N visible
06 Dec ? 10:55:19 10° SSE 11:00:01 83° E 11:04:27 10° N visible
07 Dec ? 11:19:14 10° S 11:23:42 45° WSW 11:27:56 10° NNW visible
08 Dec ? 11:43:47 10° SSW 11:47:20 22° WSW 11:50:44 10° NW visible
09 Dec ? 10:30:38 10° SE 10:34:49 35° ENE 10:38:45 10° NNE visible
09 Dec ? 12:10:37 10° WSW 12:10:56 10° WSW 12:11:16 10° W visible
10 Dec ? 10:53:54 10° SSE 10:58:30 77° ENE 11:02:48 10° N visible
